EDT,Max TemperatureF,Mean TemperatureF,Min TemperatureF,Max Dew PointF,MeanDew PointF,Min DewpointF,Max Humidity, Mean Humidity, Min Humidity, Max Sea Level PressureIn, Mean Sea Level PressureIn, Min Sea Level PressureIn, Max VisibilityMiles, Mean VisibilityMiles, Min VisibilityMiles, Max Wind SpeedMPH, Mean Wind SpeedMPH, Max Gust SpeedMPH,PrecipitationIn, CloudCover, Events, WindDirDegrees
2013-5-1,73,66,60,63,60,55,94,82,60,30.27,30.19,30.10,10.0,8.3,0.5,21,11,31,0.09,8,Fog-Rain,48
2013-5-2,71,64,57,59,57,53,94,80,61,30.30,30.25,30.22,10.0,7.9,1.8,18,13,26,0.03,6,Rain,47
2013-5-3,69,60,55,56,51,43,89,74,53,30.21,30.18,30.16,10.0,10.0,10.0,29,15,40,0.00,5,,48
2013-5-4,66,60,53,57,53,46,94,84,60,30.17,30.09,30.06,10.0,4.8,1.0,21,15,28,0.17,8,Rain,45
2013-5-5,66,60,55,62,58,51,94,88,82,30.07,30.02,29.99,10.0,6.5,1.8,20,13,30,0.19,8,Rain,57
2013-5-6,73,67,62,64,61,59,94,84,68,30.01,29.94,29.88,10.0,8.1,1.0,24,10,32,0.78,6,Rain-Thunderstorm,137
2013-5-7,73,62,51,59,53,49,100,83,45,29.98,29.92,29.88,10.0,6.2,0.2,13,5,22,0.02,2,Fog-Rain-Thunderstorm,187
2013-5-8,73,60,48,57,52,46,94,72,47,30.04,29.99,29.96,10.0,9.1,1.8,15,4,23,0.00,1,,200
2013-5-9,82,71,60,61,58,54,87,68,38,30.09,30.03,29.99,10.0,9.8,8.0,13,6,18,0.00,4,,246
2013-5-10,82,70,57,65,59,54,94,73,42,30.10,30.07,30.02,10.0,7.9,1.8,13,3,24,0.00,1,,214
2013-5-11,80,74,69,70,66,57,88,74,53,30.04,29.93,29.85,10.0,9.8,2.5,20,10,34,0.04,3,Rain,212
2013-5-12,79,74,64,65,57,43,90,61,32,29.99,29.86,29.79,10.0,9.8,8.0,16,9,21,0.00,4,,303
2013-5-13,70,61,52,47,40,33,62,44,29,30.15,30.05,30.00,10.0,10.0,10.0,16,11,21,0.00,3,,5
2013-5-14,71,58,45,46,38,31,80,48,24,30.26,30.19,30.15,10.0,10.0,9.0,16,8,23,0.00,1,,304
2013-5-15,79,67,55,61,56,46,81,65,51,30.15,30.05,29.95,10.0,10.0,10.0,18,9,25,0.00,1,,207
2013-5-16,89,76,63,64,61,58,84,65,37,29.99,29.95,29.91,10.0,9.9,9.0,15,9,25,0.00,3,,230
2013-5-17,88,78,69,66,63,60,87,67,46,30.14,30.06,29.98,10.0,9.6,7.0,14,9,,0.00,3,,212
2013-5-18,82,74,66,67,65,63,90,74,58,30.19,30.15,30.12,10.0,9.7,7.0,14,7,17,0.00,4,Thunderstorm,179
2013-5-19,81,72,64,67,64,62,93,76,58,30.19,30.15,30.12,10.0,9.8,8.0,12,4,17,0.00,5,,173
2013-5-20,80,72,66,67,65,64,93,80,66,30.17,30.12,30.08,10.0,9.4,5.0,14,7,18,0.00,4,,177
2013-5-21,82,76,70,69,66,64,90,75,54,30.10,30.06,30.01,10.0,10.0,10.0,18,7,40,0.00,5,,202
2013-5-22,82,76,70,70,67,66,90,74,58,30.07,30.04,30.00,10.0,9.9,8.0,15,8,24,0.00,4,,199
2013-5-23,80,74,68,72,68,65,94,85,69,30.01,29.94,29.86,10.0,7.5,0.5,12,5,18,0.57,6,Fog-Rain,176
2013-5-24,80,70,61,69,60,40,96,70,43,30.14,29.90,29.78,10.0,9.0,2.0,21,8,30,0.01,4,,301
2013-5-25,73,62,51,48,40,35,80,50,28,30.25,30.18,30.13,10.0,10.0,10.0,15,10,22,0.00,1,,338
2013-5-26,73,62,50,54,48,41,89,65,33,30.24,30.20,30.16,10.0,10.0,10.0,9,2,,0.00,2,,49
2013-5-27,78,62,48,56,49,45,93,63,33,30.30,30.26,30.22,10.0,9.4,7.0,12,2,16,0.00,1,,157
2013-5-28,82,68,55,64,60,53,93,72,49,30.28,30.24,30.21,10.0,9.9,8.0,13,4,18,0.00,1,,174
2013-5-29,82,72,62,66,62,59,94,74,47,30.28,30.25,30.21,10.0,9.0,1.8,12,5,20,0.00,1,Fog,199
2013-5-30,84,72,61,67,64,57,93,74,56,30.31,30.25,30.22,10.0,9.4,0.2,12,4,20,0.00,2,Fog,191
2013-5-31,86,73,62,69,66,60,96,78,53,30.26,30.21,30.16,10.0,9.2,2.0,12,2,18,0.00,2,,181